Weather History for Hagerstown, MD

Change the Weather History Date:

Monday, March 3, 2014

  Actual Average Record
Temperature  
Mean Temperature 22 °F -  
Max Temperature 29 °F 44 °F 68 °F (2008)
Min Temperature 15 °F 27 °F 10 °F (2003)
Degree Days  
Heating Degree Days 43    
Month to date heating degree days 111  
Moisture  
Dew Point 9 °F    
Average Humidity 66    
Maximum Humidity 92    
Minimum Humidity 40    
Precipitation  
Precipitation 0.11 in - - ()
Month to date precipitation 0.32  
Year to date precipitation 4.10  
Sea Level Pressure  
Sea Level Pressure 30.20 in    
Wind  
Wind Speed 11 mph (NNW)    
Max Wind Speed 18 mph    
Max Gust Speed 22 mph    
Visibility 6 miles    
Events Snow    
Averages and records for this station are not official NWS values.
T = Trace of Precipitation, MM = Missing Value Source: NWS Daily Summary

Daily Weather History Graph

Daily Weather History Graph

Search for Another Location

Airport:

Trip Planner

Search our weather history database for the weather conditions in past years. The results will help you decide how hot, cold, wet, or windy it might be!

Date:

Astronomy

Mar. 03, 2014 Rise Set
Actual Time 6:41 AM EST 6:05 PM EST
Civil Twilight 6:14 AM EST 6:32 PM EST
Nautical Twilight 5:42 AM EST 7:03 PM EST
Astronomical Twilight 5:11 AM EST 7:34 PM EST
Moon 7:48 AM EST (3/3) 9:05 PM EST (3/3)
Length of Visible Light 12h 18m
Length of Day
11h 24m
Waxing Crescent, 8% of the Moon is Illuminated
Mar 3
Waxing Crescent
Mar 8
First Quarter
Mar 16
Full
Mar 23
Last Quarter
Mar 30
New

Hourly Weather History & Observations

Time (EST) Temp. Windchill Dew Point Humidity Pressure Visibility Wind Dir Wind Speed Gust Speed Precip Events Conditions
12:04 AM 28.9 °F 21.9 °F 26.1 °F 89% 30.01 in 1.8 mi North 6.9 mph - 0.00 in Snow Light Snow
12:48 AM 28.4 °F 19.7 °F 24.8 °F 86% 30.03 in 1.0 mi North 9.2 mph - 0.04 in Snow Light Snow
12:53 AM 27.0 °F 17.3 °F 25.0 °F 92% 30.09 in 1.0 mi North 10.4 mph - 0.05 in Snow Light Snow
1:02 AM 27.0 °F 19.5 °F 25.0 °F 92% 30.04 in 1.0 mi North 6.9 mph - 0.00 in Snow Light Snow
1:12 AM 27.0 °F 18.0 °F 25.0 °F 92% 30.04 in 0.8 mi North 9.2 mph - 0.02 in Snow Light Snow
1:21 AM 26.1 °F 16.8 °F 24.1 °F 92% 30.04 in 0.8 mi North 9.2 mph - 0.03 in Snow Light Snow
1:34 AM 26.1 °F 14.5 °F 23.0 °F 88% 30.05 in 1.0 mi North 13.8 mph - 0.04 in Snow Light Snow
1:53 AM 25.0 °F 12.6 °F 21.9 °F 88% 30.11 in 1.0 mi North 15.0 mph - 0.04 in Snow Light Snow
2:02 AM 24.1 °F 13.1 °F 21.0 °F 88% 30.06 in 1.5 mi North 11.5 mph - 0.01 in Snow Light Snow
2:53 AM 23.0 °F 10.6 °F 19.9 °F 88% 30.11 in 1.2 mi NNW 13.8 mph - 0.01 in Snow Light Snow
3:53 AM 19.9 °F 5.7 °F 16.0 °F 85% 30.14 in 0.8 mi NNW 16.1 mph - 0.01 in Snow Light Snow
4:24 AM 19.0 °F 4.0 °F 16.0 °F 88% 30.09 in 1.0 mi NNW 17.3 mph - 0.00 in Snow Light Snow
4:41 AM 18.0 °F 4.8 °F 14.0 °F 84% 30.10 in 1.5 mi NNW 12.7 mph - 0.00 in Snow Light Snow
4:50 AM 17.6 °F 5.0 °F 12.2 °F 79% 30.10 in 2.5 mi NNW 11.5 mph - 0.00 in Snow Light Snow
4:53 AM 18.0 °F 4.8 °F 12.9 °F 81% 30.17 in 3.0 mi NNW 12.7 mph - 0.00 in Snow Light Snow
5:03 AM 18.0 °F 4.8 °F 10.9 °F 74% 30.12 in 2.5 mi NW 12.7 mph - 0.00 in Snow Light Snow
5:18 AM 17.1 °F 3.0 °F 10.0 °F 74% 30.13 in 3.0 mi NNW 13.8 mph - 0.00 in Snow Light Snow
5:29 AM 17.1 °F 3.0 °F 10.0 °F 74% 30.13 in 2.5 mi NNW 13.8 mph - 0.00 in Snow Light Snow
5:49 AM 17.6 °F 5.7 °F 8.6 °F 68% 30.13 in 5.0 mi NNW 10.4 mph - 0.00 in Snow Light Snow
5:53 AM 17.1 °F 4.3 °F 7.0 °F 65% 30.20 in 7.0 mi NNW 11.5 mph - 0.00 in Snow Light Snow
6:00 AM 18.0 °F 6.9 °F 6.1 °F 60% 30.15 in 9.0 mi NNW 9.2 mph - 0.00 in   Overcast
6:53 AM 16.0 °F 2.3 °F 5.0 °F 62% 30.23 in 3.0 mi North 12.7 mph - 0.00 in Snow Light Snow
7:11 AM 16.0 °F 3.6 °F 3.9 °F 59% 30.17 in 2.5 mi NNW 10.4 mph - 0.00 in Snow Light Snow
7:20 AM 16.0 °F 3.6 °F 1.9 °F 54% 30.17 in 6.0 mi NW 10.4 mph - 0.00 in Snow Light Snow
7:42 AM 16.0 °F 1.7 °F -0.9 °F 47% 30.18 in 10.0 mi NNW 13.8 mph - 0.00 in   Overcast
7:53 AM 16.0 °F 1.7 °F -0.0 °F 49% 30.25 in 10.0 mi NNW 13.8 mph - 0.00 in   Overcast
8:53 AM 16.0 °F 2.9 °F -2.9 °F 43% 30.27 in 10.0 mi North 11.5 mph - N/A   Overcast
9:53 AM 16.0 °F 3.6 °F -5.1 °F 39% 30.27 in 10.0 mi North 10.4 mph - N/A   Overcast
10:53 AM 16.0 °F 2.9 °F -2.9 °F 43% 30.30 in 10.0 mi NNW 11.5 mph - N/A   Overcast
11:53 AM 16.0 °F 5.3 °F -4.0 °F 41% 30.30 in 10.0 mi NNW 8.1 mph - N/A   Mostly Cloudy
12:53 PM 17.1 °F 5.8 °F -0.9 °F 45% 30.30 in 10.0 mi North 9.2 mph - N/A   Overcast
1:53 PM 17.1 °F 4.3 °F -0.9 °F 45% 30.30 in 10.0 mi NNW 11.5 mph - N/A   Scattered Clouds
2:53 PM 18.0 °F 5.4 °F -0.0 °F 45% 30.30 in 10.0 mi North 11.5 mph - N/A   Clear
3:53 PM 19.0 °F 10.0 °F -0.0 °F 43% 30.32 in 10.0 mi NNW 6.9 mph - N/A   Clear
4:53 PM 19.0 °F 10.0 °F 1.0 °F 46% 30.32 in 10.0 mi NNW 6.9 mph - N/A   Clear
5:53 PM 18.0 °F 11.1 °F -0.9 °F 44% 30.35 in 10.0 mi North 4.6 mph - N/A   Clear
6:53 PM 16.0 °F - 1.9 °F 54% 30.37 in 10.0 mi Calm Calm - N/A   Clear
7:53 PM 15.1 °F - 3.0 °F 59% 30.37 in 10.0 mi Calm Calm - N/A   Clear
8:53 PM 14.0 °F - 1.9 °F 59% 30.39 in 10.0 mi Calm Calm - N/A   Clear
9:53 PM 12.0 °F 5.9 °F 1.0 °F 61% 30.40 in 10.0 mi SE 3.5 mph - N/A   Clear
10:53 PM 10.0 °F - -0.0 °F 64% 30.40 in 10.0 mi Calm Calm - N/A   Clear
11:53 PM 9.0 °F - -0.0 °F 67% 30.40 in 10.0 mi Calm Calm - N/A   Clear